Location: Aldenham
(51.6667°N, 0.3500°W)
Time: 05:30:09
(UTC+00:00)

A-11 Canister half - Pass Details

Date: 22 February 2026
Orbit: 1512 x 1687 km, 47.2° (Epoch: 5 March)

Event Time Altitude Azimuth Distance (km) Brightness Sun altitude
Rises 18:53:43 0° 207° (SSW) 4,926 12.0 -13.8°
Reaches altitude 10° 18:57:17 10° 198° (SSW) 3,944 11.3 -14.4°
Maximum altitude 19:05:53 33° 140° (SE) 2,560 9.8 -15.7°
Enters shadow 19:10:55 22° 97° (E) 3,102 9.9 -16.5°
Drops below altitude 10° 19:14:24 10° 82° (E) 3,912 - -17.0°
Sets 19:17:54 0° 73° (ENE) 4,881 - -17.6°
